Regional Weather Roundup
Issued by NWS Albany, NY

Home | Current Version | Previous Version | Graphics & Text | Print | Product List | Glossary On
Versions: 1 2 3 4 5 6 7 8 9 10 11 12 13 14 15 16 17 18 19 20 21 22 23 24 25 26 27
000
ASUS41 KALY 281510
RWRALY

NEW YORK STATE HOURLY WEATHER ROUNDUP
NATIONAL WEATHER SERVICE ALBANY NY
1100 AM EDT FRI APR 28 2017

NOTE: "FAIR" INDICATES FEW OR NO CLOUDS BELOW 12,000 FEET WITH NO
SIGNIFICANT WEATHER AND/OR NO OBSTRUCTIONS TO VISIBILITY.

NYZ032-033-038>043-046>054-057>066-NYZ062>081-082-084-281600-
EAST


CITY           SKY/WX    TMP DP  RH WIND       PRES   REMARKS
ALBANY         MOSUNNY   69  51  52 W14       29.99R
GLENS FALLS    PTSUNNY   70  55  59 VRB3      29.96R
POUGHKEEPSIE   PTSUNNY   72  61  68 VRB6      29.96S
NEWBURGH       MOSUNNY   73  64  73 W7        29.98S
MONTGOMERY     MOSUNNY   74  62  66 CALM      29.96S
WHITE PLAINS   MOSUNNY   68  62  81 NW6       29.99R
ISLIP          PTSUNNY   69  61  75 VRB5      30.00R
NEW YORK CITY  MOSUNNY   72  60  66 VRB6      29.98S HAZE
CENTRAL PARK   SUNNY     70  61  73 CALM      30.01S HAZE
$$

NYZ005>009-017-018-044>046-055-056-281600-
CENTRAL


CITY           SKY/WX    TMP DP  RH WIND       PRES   REMARKS
FULTON         MOSUNNY   61  45  55 W6        30.02S
SYRACUSE       MOSUNNY   61  46  57 W10       30.02S
ROME           SUNNY     61  46  57 W15G21    30.03S
ELMIRA         SUNNY     66  45  46 W9        30.01S
BINGHAMTON     MOSUNNY   62  49  62 W9        30.03R
MONTICELLO     MOSUNNY   70  54  56 NW9G17    30.02S
$$

NYZ026>034-041>043-087-281600-
NORTH


CITY           SKY/WX    TMP DP  RH WIND       PRES   REMARKS
WATERTOWN        N/A    N/A N/A N/A MISG      30.02S
FORT DRUM      NOT AVBL
OGDENSBURG     FAIR      61  48  62 SW10G20   29.99R
MASSENA        CLOUDY    61  47  59 SW22G28   29.98R
SARANAC LAKE   MOSUNNY   59  48  67 SW14G23   29.98R
PLATTSBURGH    SUNNY     70  46  42 SW13G18   29.93R
$$

NYZ001>004-010>016-019>021-085-281600-
WEST


CITY           SKY/WX    TMP DP  RH WIND       PRES   REMARKS
NIAGARA FALLS  CLOUDY    56  41  57 SW21G29   30.02R
BUFFALO        MOSUNNY   55  41  59 SW16      30.02S
DUNKIRK        MOSUNNY   55  43  63 W10       30.03F
JAMESTOWN      SUNNY     55  41  58 S12       30.03F
WELLSVILLE     SUNNY     59  42  53 S10       30.06R
ROCHESTER      PTSUNNY   59  44  57 W15       30.02F
PENN YAN       MOSUNNY   64  42  44 S7        30.02S
$$

             KEY
       WCI = WIND CHILL INDEX
       VSB = VISIBILITY
       HX  = HEAT INDEX
$$




USA.gov is the U.S. government's official web portal to all federal, state and local government web resources and services.